Location: Mascot Post Office (historical)
(40.2645°N, 99.5462°W)
Time: 02:39:48
(UTC+00:00)

Cosmos 1500 - Pass Details

Date: 14 July 2020
Orbit: 498 x 520 km, 82.5° (Epoch: 14 August)

Event Time Altitude Azimuth Distance (km) Brightness Sun altitude
Exits shadow 08:53:00 35° 294° (WNW) 843 4.1 -21.3°
Drops below altitude 10° 08:56:13 10° 350° (N) 1,735 6.5 -20.9°
Sets 08:58:28 0° 359° (N) 2,621 7.7 -20.7°
